Station 46013 (LLNR 390) - BODEGA BAY - 48NM NW of San Francisco, CA Image indicating link to RSS feed of recent meteorological observations for station 46013


Conditions at 46013 as of
(11:40 pm PDT on 06/14/2024)
0640 GMT on 06/15/2024:
     

Click on the graph icon in the table below to see a time series plot of the last five days of that observation.

5-day plot - Wind Direction Wind Direction (WDIR): NW ( 310 deg true )
5-day plot - Wind Speed Wind Speed (WSPD): 23.3 kts
5-day plot - Wind Gust Wind Gust (GST): 29.1 kts
5-day plot - Atmospheric Pressure Atmospheric Pressure (PRES):30.06 in
5-day plot - Air Temperature Air Temperature (ATMP): 52.0 °F
5-day plot - Dew Point Dew Point (DEWP): 51.3 °F
5-day plot - Wind Chill Wind Chill (CHILL): 45.1 °F
5-day plot - Wind Speed at 10 Meters Wind Speed at 10 meters (WSPD10M): 25.3 kts
5-day plot - Wind Speed at 20 Meters Wind Speed at 20 meters (WSPD20M): 27.2 kts
5-day plot -  Wind Speed, Wind Gust and Atmospheric Pressure Combined plot of Wind Speed, Gust, and Air Pressure
Supplemental Measurements
Highest 1-minute Wind Speed
Time (PDT)5-day plot - 1-Minute Wind Speed WSPD 5-day plot - 1-Minute Wind Direction WDIR
11:36 pm 25.3 kts-
Previous observations
TIME
(PDT)
5-day plot - Wind Direction
WDIR
 
5-day plot - Wind Speed
WSPD
kts
5-day plot - Wind Gust
GST
kts
5-day plot - Wave Height
WVHT
ft
5-day plot - Dominant Wave Period
DPD
sec
5-day plot - Average Wave Period
APD
sec
5-day plot - Mean Wave Direction
MWD
 
5-day plot - Atmospheric Pressure
PRES
in
5-day plot - Pressure Tendency
PTDY
in
5-day plot - Air Temperature
ATMP
°F
5-day plot - Water Temperature
WTMP
°F
5-day plot - Dew Point
DEWP
°F
5-day plot - Salinity
SAL
psu
5-day plot - Visibility
VIS
nmi
5-day plot - Tide (above MLLW)
TIDE
ft
2024-06-14 11:30 pm NW 23.3 27.2----30.06- 52.2- 51.3---
2024-06-14 11:20 pm NW 23.3 31.1 8.5 86.1 NW30.06- 52.2- 51.3---
2024-06-14 11:10 pm NW 23.3 29.1 8.5-6.1 NW30.06- 52.2- 51.3---
2024-06-14 11:00 pm NW 23.3 31.1----30.06+0.03 52.3- 51.4---
2024-06-14 10:50 pm NW 21.4 29.1 8.2 75.9 NW30.07- 52.3- 51.4---
2024-06-14 10:40 pm NW 21.4 27.2----30.08- 52.3- 51.4---
2024-06-14 10:30 pm NW 23.3 27.2----30.08- 52.3- 51.4---
2024-06-14 10:20 pm NW 25.3 31.1 9.5 86.1 NW30.07- 52.5- 51.6---
2024-06-14 10:10 pm NW 25.3 33.0----30.06- 52.5- 51.8---
2024-06-14 10:00 pm NW 25.3 33.0----30.06+0.04 52.3- 51.6---
2024-06-14 09:50 pm NW 25.3 33.0 9.5 86.1 NW30.06- 52.3- 51.6---
2024-06-14 09:40 pm NW 27.2 33.0 9.5-6.1 NW30.05- 52.3- 51.6---
2024-06-14 09:30 pm NW 27.2 35.0----30.05- 52.3- 51.6---
2024-06-14 09:20 pm NW 27.2 36.9 8.9 86.1 NW30.05- 52.3- 51.4---
2024-06-14 09:10 pm NW 29.1 35.0 8.9-6.1 NW30.04- 52.5- 51.6---
2024-06-14 09:00 pm NW 27.2 35.0----30.04+0.04 52.5- 51.4---
2024-06-14 08:50 pm NW 27.2 35.0 8.9 76.1 NW30.04- 52.7- 51.4---
2024-06-14 08:40 pm NW 25.3 31.1----30.04- 52.5- 51.1---
2024-06-14 08:30 pm NW 25.3 33.0----30.04- 52.5- 51.1---
2024-06-14 08:20 pm NW 25.3 29.1 8.9 86.1 NW30.04- 52.5- 51.1---
2024-06-14 08:10 pm NW 25.3 31.1 8.9-6.1 NW30.03- 52.5- 51.1---
2024-06-14 08:00 pm NW 25.3 31.1----30.03+0.02 52.7- 50.9---
2024-06-14 07:50 pm NW 25.3 33.0 8.9 86.0 NW30.04- 52.9- 51.1---
2024-06-14 07:40 pm NW 27.2 33.0----30.03- 52.9- 51.1---
2024-06-14 07:30 pm NW 27.2 33.0----30.03- 52.9- 50.9---
2024-06-14 07:20 pm NW 27.2 35.0 9.5 86.1 NW30.03- 53.1- 50.9---
2024-06-14 07:10 pm NW 27.2 35.0 9.5-6.1 NW30.02- 52.9- 50.9---
2024-06-14 07:00 pm NW 27.2 33.0----30.02+0.01 52.9- 50.9---
2024-06-14 06:50 pm NW 27.2 35.0 9.5 76.0 NW30.02- 52.9- 50.9---
2024-06-14 06:40 pm NW 27.2 35.0 9.5-6.0 NW30.01- 52.9- 50.9---
2024-06-14 06:30 pm NW 27.2 35.0----30.01- 52.9- 50.7---
2024-06-14 06:20 pm NW 27.2 36.9 9.8 86.2 NW30.01- 52.9- 50.5---
2024-06-14 06:10 pm NW 29.1 35.0----30.01- 52.9- 50.5---
2024-06-14 06:00 pmWNW 31.1 36.9----30.00-0.02 53.1- 50.4---
2024-06-14 05:50 pm NW 29.1 36.9 9.5 86.1 NW30.00- 53.1- 50.5---
2024-06-14 05:40 pm NW 29.1 36.9 9.5-6.1 NW30.00- 53.1- 50.4---
2024-06-14 05:30 pm NW 29.1 35.0----30.00- 53.2- 50.4---
2024-06-14 05:20 pm NW 29.1 36.9 9.5 86.1 NW30.01- 52.9- 50.4---
2024-06-14 05:10 pm NW 29.1 38.9----30.01- 53.1- 50.5---
2024-06-14 05:00 pm NW 27.2 35.0----30.01-0.01 52.9- 50.4---
2024-06-14 04:50 pm NW 27.2 35.0 10.2 86.2 NW30.01- 53.1- 50.2---
2024-06-14 04:40 pm NW 27.2 35.0 10.2-6.2 NW30.01- 53.2- 49.8---
2024-06-14 04:20 pm NW 29.1 36.9 10.2 86.2 NW30.01- 53.4- 49.6---
2024-06-14 04:10 pm NW 29.1 36.9 10.2-6.2 NW30.01- 53.2- 49.5---
2024-06-14 04:00 pm NW 29.1 36.9----30.01-0.01 53.4- 49.5---
2024-06-14 03:50 pm NW 27.2 35.0 9.2 75.9 NW30.01- 53.2- 49.5---
2024-06-14 03:40 pm NW 27.2 35.0----30.01- 53.2- 49.5---
2024-06-14 03:30 pm NW 27.2 35.0----30.01- 53.1- 49.3---
2024-06-14 03:20 pm NW 27.2 33.0 9.5 86.2 NW30.01- 52.9- 49.3---
2024-06-14 03:10 pm NW 27.2 33.0 9.5-6.2 NW30.01- 52.9- 49.3---
2024-06-14 03:00 pm NW 25.3 33.0----30.02-0.01 52.9- 49.5---
2024-06-14 02:50 pm NW 27.2 35.0 9.2 86.0 NW30.01- 52.9- 49.5---
2024-06-14 02:40 pm NW 27.2 36.9 9.2-6.0 NW30.01- 52.7- 49.3---
2024-06-14 02:30 pm NW 27.2 35.0----30.01- 52.5- 49.3---
2024-06-14 02:20 pm NW 27.2 33.0 8.9 86.0 NW30.01- 52.5- 49.1---
2024-06-14 02:10 pm NW 25.3 33.0 8.9-6.0 NW30.02- 52.5- 49.1---
2024-06-14 02:00 pm NW 25.3 31.1----30.02-0.02 52.5- 49.1---
2024-06-14 01:50 pm NW 25.3 31.1 9.2 86.1 NW30.02- 52.5- 49.3---
2024-06-14 01:40 pm NW 23.3 29.1----30.03- 52.5- 49.3---
2024-06-14 01:30 pm NW 23.3 33.0----30.03- 52.3- 49.3---
2024-06-14 01:20 pm NW 25.3 31.1 9.2 86.2 NW30.02- 52.3- 49.5---
2024-06-14 01:10 pm NW 27.2 35.0 9.2-6.2 NW30.02- 52.3- 49.3---
2024-06-14 01:00 pm NW 25.3 31.1----30.02+0.00 52.2- 49.3---
2024-06-14 12:50 pm NW 25.3 33.0 9.5 86.2 NW30.02- 52.2- 49.3---
2024-06-14 12:40 pm NW 25.3 33.0 9.5-6.2 NW30.02- 52.2- 49.3---
2024-06-14 12:30 pm NW 25.3 31.1----30.02- 52.0- 49.5---
2024-06-14 12:20 pm NW 23.3 29.1 8.5 86.0 NW30.03- 51.8- 49.5---
2024-06-14 12:10 pm NW 21.4 27.2 8.5-6.0 NW30.03- 51.8- 49.5---
2024-06-14 12:00 pm NW 21.4 27.2----30.03+0.00 51.8- 49.6---
2024-06-14 11:50 am NW 21.4 27.2 9.2 86.2 NW30.03- 51.6- 49.5---
2024-06-14 11:40 am NW 23.3 27.2 9.2-6.2 NW30.03- 51.6- 49.5---
2024-06-14 11:30 am NW 23.3 29.1----30.03- 51.6- 49.3---
2024-06-14 11:20 am NW 21.4 27.2 8.5 96.2 NW30.03- 51.6- 49.3---
2024-06-14 11:10 am NW 21.4 27.2 8.5-6.2 NW30.04- 51.6- 49.3---
2024-06-14 11:00 am NW 21.4 27.2----30.04+0.02 51.4- 49.1---
2024-06-14 10:50 am NW 21.4 27.2 8.9 86.2 NW30.03- 51.4- 49.1---
2024-06-14 10:40 am NW 19.4 25.3 8.9-6.2 NW30.03- 51.3- 49.1---
2024-06-14 10:30 am NW 21.4 25.3----30.03- 51.3- 48.9---
2024-06-14 10:20 am NW 19.4 25.3 8.2 76.2 NW30.03- 51.4- 49.3---
2024-06-14 10:10 am NW 19.4 25.3 8.2-6.2 NW30.03- 51.4- 49.3---
2024-06-14 10:00 am NW 19.4 25.3----30.03+0.03 51.3- 49.3---
2024-06-14 09:50 am NW 19.4 23.3 8.2 86.3 NW30.03- 51.3- 49.3---
2024-06-14 09:40 am NW 17.5 25.3 8.2-6.3 NW30.03- 51.3- 49.5---
2024-06-14 09:30 am NW 17.5 21.4----30.03- 51.3- 49.5---
2024-06-14 09:20 am NW 19.4 23.3 8.2 86.3 NW30.03- 51.1- 49.3---
2024-06-14 09:10 am NW 19.4 23.3----30.03- 51.1- 49.5---
2024-06-14 09:00 am NW 19.4 23.3----30.03+0.04 51.1- 49.5---
2024-06-14 08:50 am NW 19.4 23.3 8.2 86.4 NW30.03- 51.1- 49.6---
2024-06-14 08:40 am NW 17.5 23.3----30.03- 51.1- 49.6---
2024-06-14 08:30 am NW 19.4 23.3----30.03- 50.9- 49.5---
2024-06-14 08:20 am NW 17.5 21.4 8.9 86.5 NW30.03- 50.9- 49.5---
2024-06-14 08:10 amNNW 17.5 21.4 8.9-6.5 NW30.02- 50.9- 49.5---
2024-06-14 08:00 amNNW 17.5 23.3----30.01+0.03 50.9- 49.6---
2024-06-14 07:50 amNNW 17.5 23.3 8.5 86.2 NW30.01- 50.9- 49.5---
2024-06-14 07:40 amNNW 17.5 23.3----30.01- 50.9- 49.5---
2024-06-14 07:30 amNNW 19.4 25.3----30.01- 50.9- 49.5---
2024-06-14 07:20 amNNW 19.4 23.3 8.9 86.6 NW30.00- 50.9- 49.5---
2024-06-14 07:10 amNNW 19.4 25.3 8.9-6.6 NW30.00- 51.1- 49.6---
2024-06-14 07:00 amNNW 19.4 25.3----30.00+0.02 51.1- 49.5---
2024-06-14 06:50 am NW 21.4 27.2 8.9 76.3WNW30.00- 51.1- 49.5---
2024-06-14 06:40 amNNW 21.4 27.2 8.9-6.3WNW30.00- 51.1- 49.6---
2024-06-14 06:30 am NW 21.4 27.2----30.00- 51.1- 49.6---
2024-06-14 06:20 amNNW 19.4 25.3 8.5 86.2WNW30.00- 51.1- 49.6---
2024-06-14 06:10 am NW 21.4 25.3 8.5-6.2WNW30.00- 51.1- 49.6---
2024-06-14 06:00 am NW 19.4 25.3----30.00+0.01 51.1- 49.6---
2024-06-14 05:50 am NW 19.4 25.3 8.5 86.3 NW30.00- 51.1- 49.6---
2024-06-14 05:40 am NW 19.4 23.3----30.00- 51.1- 49.6---
2024-06-14 05:30 amNNW 17.5 23.3----30.00- 51.1- 49.6---
2024-06-14 05:20 amNNW 19.4 23.3 8.2 106.4WNW30.00- 50.9- 49.5---
2024-06-14 05:10 amNNW 17.5 23.3 8.2-6.4WNW30.00- 50.9- 49.6---
2024-06-14 05:00 am NW 19.4 25.3----29.99+0.00 50.9- 49.6---
2024-06-14 04:50 am NW 19.4 23.3 8.5 86.4WNW29.98- 50.9- 49.6---
2024-06-14 04:40 am NW 17.5 23.3----29.98- 50.9- 49.6---
2024-06-14 04:30 am NW 17.5 25.3----29.98- 50.9- 49.6---
2024-06-14 04:20 am NW 17.5 23.3 8.9 96.4 NW29.98- 51.1- 49.8---
2024-06-14 04:10 am NW 19.4 23.3 8.9-6.4 NW29.98- 51.1- 49.8---
2024-06-14 04:00 am NW 19.4 23.3----29.98-0.01 51.1- 49.8---
2024-06-14 03:50 am NW 19.4 23.3 8.9 86.2 NW29.98- 51.1- 49.8---
2024-06-14 03:40 am NW 19.4 23.3 8.9-6.2 NW29.98- 51.1- 49.8---
2024-06-14 03:30 am NW 19.4 23.3----29.98- 51.1- 49.8---
2024-06-14 03:20 am NW 19.4 25.3 8.9 106.6WNW29.98- 51.1- 49.8---
2024-06-14 03:10 am NW 19.4 23.3 8.9-6.6WNW29.98- 51.1- 49.8---
2024-06-14 03:00 am NW 19.4 23.3----29.98-0.01 51.3- 50.0---
2024-06-14 02:50 amNNW 19.4 25.3 9.5 96.7 NW29.98- 51.1- 49.8---
2024-06-14 02:40 amNNW 19.4 27.2----29.98- 51.3- 49.8---
2024-06-14 02:30 am NW 19.4 23.3----29.98- 51.3- 49.8---
2024-06-14 02:20 am NW 19.4 23.3 8.9 96.5 NW29.98- 51.3- 49.8---
2024-06-14 02:10 am NW 17.5 23.3 8.9-6.5 NW29.98- 51.3- 50.0---
2024-06-14 02:00 am NW 19.4 23.3----29.98+0.00 51.3- 49.8---
2024-06-14 01:50 am NW 19.4 25.3 8.5 96.4 NW29.98- 51.3- 49.8---
2024-06-14 01:40 am NW 19.4 23.3----29.98- 51.3- 49.8---
2024-06-14 01:30 am NW 19.4 25.3----29.98- 51.3- 49.8---
2024-06-14 01:20 am NW 19.4 25.3 8.5 106.4WNW29.99- 51.3- 49.8---
2024-06-14 01:10 am NW 19.4 25.3----29.98- 51.3- 49.8---
2024-06-14 01:00 am NW 19.4 25.3----29.98+0.01 51.3- 49.8---
2024-06-14 12:50 am NW 19.4 25.3 8.5 86.2 NW29.99- 51.3- 49.8---
2024-06-14 12:40 am NW 19.4 25.3 8.5-6.2 NW29.99- 51.3- 49.8---
2024-06-14 12:30 am NW 19.4 23.3----29.99- 51.3- 50.0---
2024-06-14 12:20 am NW 19.4 23.3 8.2 96.2WNW30.00- 51.3- 50.0---
2024-06-14 12:10 am NW 19.4 23.3 8.2-6.2WNW30.00- 51.4- 50.2---
2024-06-14 12:00 am NW 19.4 27.2----30.00+0.03 51.4- 50.0---
2024-06-13 11:50 pm NW 19.4 25.3 8.9 106.5WNW30.00- 51.4- 50.0---

Detailed Wave Summary
for 46013 as of
(11:10 pm PDT on 06/14/2024)
0610 GMT on 06/15/2024:

These wave data are displayed in rounded times.

     

Click on the graph icon in the table below to see a time series plot of the last five days of that observation.

5-day plot - Significant Wave Height Significant Wave Height (WVHT): 8.5 ft
5-day plot - Swell Height Swell Height (SwH): 4.3 ft
5-day plot - Swell Period Swell Period (SwP): 10.8 sec
5-day plot - Swell Direction Swell Direction (SwD): NW
5-day plot - Wind Wave Height Wind Wave Height (WWH): 7.5 ft
5-day plot - Wind Wave Period Wind Wave Period (WWP): 7.7 sec
5-day plot - Wind Wave Direction Wind Wave Direction (WWD): NW
5-day plot - Wave Steepness Wave Steepness (STEEPNESS): STEEP
5-day plot - Average Wave Period Average Wave Period (APD): 6.1 sec
Previous observations
TIME
(PDT)
5-day plot - Wave Height
WVHT
ft
5-day plot - Swell Height
SwH
ft
5-day plot - Swell Period
SwP
sec
5-day plot - Swell Direction
SwD
 
5-day plot - Wind Wave Height
WWH
ft
5-day plot - Wind Wave Period
WWP
sec
5-day plot - Wind Wave Direction
WWD
 
5-day plot - Wave Steepness
STEEPNESS
 
5-day plot - Average Wave Period
APD
sec
2024-06-14 10:40 pm 8.2 3.9 10.8WNW 7.2 7.1 NW STEEP 5.9
2024-06-14 10:10 pm 9.5 3.9 10.8WNW 8.5 7.7 NW STEEP 6.1
2024-06-14 09:40 pm 9.5 4.6 11.4WNW 8.2 7.7 NW STEEP 6.1
2024-06-14 09:10 pm 8.9 4.3 11.4WNW 7.9 7.7 NW STEEP 6.1
2024-06-14 08:40 pm 8.9 4.3 11.4 NW 7.9 7.1 NWVERY_STEEP 6.1
2024-06-14 08:10 pm 8.9 4.3 10.8WNW 7.9 7.7 NW STEEP 6.1
2024-06-14 07:40 pm 8.9 4.3 11.4WNW 7.5 8.3 NW STEEP 6.0
2024-06-14 07:10 pm 9.5 4.6 11.4WNW 8.2 8.3 NW STEEP 6.1
2024-06-14 06:40 pm 9.5 4.6 11.4 NW 8.2 7.1 NWVERY_STEEP 6.0
2024-06-14 06:10 pm 9.8 4.9 12.1WNW 8.2 8.3 NW STEEP 6.2
2024-06-14 05:40 pm 9.5 4.9 12.1WNW 8.2 8.3 NW STEEP 6.1
2024-06-14 05:10 pm 9.5 4.3 14.8 SW 8.5 7.7 NW STEEP 6.1
2024-06-14 04:40 pm 10.2 5.2 11.4WNW 8.9 8.3 NW STEEP 6.2
2024-06-14 04:10 pm 10.2 5.2 11.4WNW 8.9 8.3 NW STEEP 6.2
2024-06-14 03:40 pm 9.2 3.6 12.1WNW 8.5 6.7 NWVERY_STEEP 5.9
2024-06-14 03:10 pm 9.5 5.2 12.1WNW 7.9 8.3 NW STEEP 6.2
2024-06-14 02:40 pm 9.2 4.6 11.4WNW 7.9 7.7 NW STEEP 6.0
2024-06-14 02:10 pm 8.9 4.3 12.9WNW 7.9 8.3 NW STEEP 6.0
2024-06-14 01:40 pm 9.2 4.6 10.0WNW 7.9 7.7 NW STEEP 6.1
2024-06-14 01:10 pm 9.2 3.0 13.8WNW 8.9 7.7 NW STEEP 6.2
2024-06-14 12:40 pm 9.5 5.2 12.1WNW 7.9 7.7 NW STEEP 6.2
2024-06-14 12:10 pm 8.5 4.3 11.4WNW 7.2 8.3 NW STEEP 6.0
2024-06-14 11:40 am 9.2 4.9 9.1 NW 7.9 7.7 NW STEEP 6.2
2024-06-14 11:10 am 8.5 5.2 9.1 NW 6.9 6.7 NW AVERAGE 6.2
2024-06-14 10:40 am 8.9 4.6 11.4 NW 7.5 8.3 NW STEEP 6.2
2024-06-14 10:10 am 8.2 4.3 10.8WNW 7.2 7.1 NW STEEP 6.2
2024-06-14 09:40 am 8.2 5.6 8.3 NW 5.9 7.1 NW STEEP 6.3
2024-06-14 09:10 am 8.2 4.6 12.9WNW 6.6 8.3 NW STEEP 6.3
2024-06-14 08:40 am 8.2 4.9 10.0WNW 6.6 8.3 NW STEEP 6.4
2024-06-14 08:10 am 8.9 5.2 11.4WNW 7.2 8.3 NW STEEP 6.5
2024-06-14 07:40 am 8.5 4.3 11.4WNW 7.2 8.3 NW STEEP 6.2
2024-06-14 07:10 am 8.9 6.2 8.3 NW 6.2 6.7 NW STEEP 6.6
2024-06-14 06:40 am 8.9 3.9 11.4WNW 7.9 7.1 WNWVERY_STEEP 6.3
2024-06-14 06:10 am 8.5 3.6 10.8WNW 7.9 8.3 WNW STEEP 6.2
2024-06-14 05:40 am 8.5 4.9 11.4WNW 6.9 8.3 NW STEEP 6.3
2024-06-14 05:10 am 8.2 4.3 10.0WNW 7.2 7.1 NW AVERAGE 6.4
2024-06-14 04:40 am 8.5 4.3 12.1WNW 7.5 8.3 WNW STEEP 6.4
2024-06-14 04:10 am 8.9 3.9 10.8WNW 8.2 9.1 NW AVERAGE 6.4
2024-06-14 03:40 am 8.9 3.9 10.8WNW 7.9 8.3 NW STEEP 6.2
2024-06-14 03:10 am 8.9 5.6 10.0WNW 6.9 8.3 NW AVERAGE 6.6
2024-06-14 02:40 am 9.5 4.6 12.9 SW 8.2 9.1 NW AVERAGE 6.7
2024-06-14 02:10 am 8.9 5.9 9.1 NW 6.9 5.9 NW AVERAGE 6.5
2024-06-14 01:40 am 8.5 5.2 9.1 NW 6.6 7.7 WNW AVERAGE 6.4
2024-06-14 01:10 am 8.5 5.2 10.0WNW 6.9 7.1 NW AVERAGE 6.4
2024-06-14 12:40 am 8.5 4.6 10.0 NW 7.2 8.3 NW STEEP 6.2
2024-06-14 12:10 am 8.2 5.2 9.1WNW 6.6 6.7 NW AVERAGE 6.2

Plot of wave energy versus frequency (and period)